This is the latest recevied weather packets stored in our database for station/object F5TND-3. If no packets are shown the sender has not sent any weather packets the latest 10 day(s).
| Time | Temp. | Humidity | Pressure | Rain* | Wind** | Luminosity | Snow |
|---|---|---|---|---|---|---|---|
| 1788029737 | 18.33° C | 100% | 1013.3 hPa | - | - | - | - |
| 1788028537 | 18.89° C | 100% | 1013.1 hPa | - | - | - | - |
| 1788026137 | 18.33° C | 100% | 1013.1 hPa | - | - | - | - |
| 1788024937 | 18.89° C | 100% | 1013.2 hPa | - | - | - | - |
| 1788023737 | 18.33° C | 100% | 1013.1 hPa | - | - | - | - |
| 1788022537 | 18.33° C | 100% | 1013.2 hPa | - | - | - | - |
| 1788021337 | 18.33° C | 100% | 1013.3 hPa | - | - | - | - |
| 1788020137 | 18.89° C | 100% | 1013.2 hPa | - | - | - | - |
| 1788018937 | 18.33° C | 100% | 1013.2 hPa | - | - | - | - |
| 1788017737 | 18.33° C | 100% | 1013.4 hPa | - | - | - | - |
| 1788016537 | 18.33° C | 100% | 1013.4 hPa | - | - | - | - |
| 1788015337 | 18.33° C | 100% | 1013.2 hPa | - | - | - | - |
| 1788014137 | 18.33° C | 100% | 1013.3 hPa | - | - | - | - |
| 1788012937 | 18.33° C | 100% | 1013.2 hPa | - | - | - | - |
| 1788011737 | 17.78° C | 100% | 1013.5 hPa | - | - | - | - |
| 1788010537 | 18.33° C | 100% | 1013.3 hPa | - | - | - | - |
| 1788009337 | 18.33° C | 100% | 1013.2 hPa | - | - | - | - |
| 1788008137 | 17.78° C | 100% | 1013.3 hPa | - | - | - | - |
| 1788006937 | 18.33° C | 100% | 1013.3 hPa | - | - | - | - |
| 1788005737 | 17.78° C | 100% | 1013.3 hPa | - | - | - | - |
| 1788004537 | 18.33° C | 100% | 1013.2 hPa | - | - | - | - |
| 1788003336 | 18.33° C | 100% | 1013.2 hPa | - | - | - | - |
| 1788002161 | 18.89° C | 100% | 1013.1 hPa | - | - | - | - |
| 1788000961 | 20° C | 100% | 1013.2 hPa | - | - | - | - |
| 1787999761 | 18.89° C | 100% | 1013 hPa | - | - | - | - |
* Rain since midnight (hover to see other rain measurements)
** Current wind speed in m/s (hover to see current wind gust speed)